Theta_e
304 299 296 300 301 301 300 298 297 300 300 297 299 299 302 299 299 299 299 298 297 297 297 298 300 303 301 302 302 304 306 305 307 307 305 304 301 300 298 299 300 300 302 303
297 294 301 303 301 300 298 296 296 300 298 296 298 298 302 300 299 300 299 297 297 295 296 297 299 301 301 302 303 304 306 308 309 307 304 301 298 297 296 295 295 295 296 296
297 299 301 298 297 295 296 295 296 296 296 297 296 295 298 302 299 298 298 298 297 296 295 295 297 298 300 300 301 302 303 304 303 302 299 298 298 296 294 293 292 293 294 294
298 302 297 296 295 296 293 299 297 295 293 291 297 289 298 300 294 294 294 295 295 296 296 295 295 296 296 296 298 299 299 300 301 303 301 300 295 291 291 291 292 292 293 292
296 294 294 294 295 297 295 298 296 295 293 293 294 289 295 296 291 291 293 294 295 295 294 293 293 293 293 295 295 296 296 296 297 297 296 294 292 292 291 291 291 291 291 292
297 299 298 298 297 297 298 295 293 293 293 287 292 291 293 291 292 293 293 294 294 294 293 292 292 291 291 292 293 293 292 292 293 293 294 293 291 291 291 291 290 290 290 289
295 296 298 298 294 295 296 293 288 286 284 284 292 292 294 297 295 295 293 293 294 293 292 290 289 289 290 290 290 290 290 289 291 292 292 292 292 292 290 290 290 289 288 287
292 290 296 297 298 296 292 294 289 283 285 288 286 285 292 295 296 295 295 294 294 292 291 290 290 290 289 289 289 289 289 288 289 289 290 290 291 290 290 289 289 287 287 286
293 294 298 298 300 300 293 290 297 288 283 283 288 291 295 292 291 293 293 293 292 291 291 290 290 289 289 288 288 288 288 288 288 289 289 289 289 289 288 288 288 287 286 285
297 292 293 293 295 295 295 297 287 288 282 281 287 289 290 288 289 290 292 291 292 291 290 290 289 289 289 288 288 288 288 288 288 289 289 288 288 288 288 287 286 286 285 285
298 294 289 291 289 291 290 289 291 292 290 286 284 287 295 295 293 290 291 292 292 291 291 290 290 289 289 288 288 287 288 287 287 288 288 288 288 287 287 287 286 285 284 284
298 294 291 291 295 296 296 292 292 287 285 288 287 289 292 296 296 294 292 292 293 293 292 291 290 289 288 287 287 287 287 287 288 288 288 288 287 287 286 286 285 285 283 283
296 290 286 288 290 290 288 291 293 293 291 286 285 288 292 293 294 295 294 294 294 293 292 291 291 289 287 287 287 287 287 287 288 288 288 287 286 286 286 285 284 283 282 281
299 291 289 288 292 292 286 289 290 290 286 287 288 291 289 291 292 294 295 295 294 293 292 291 291 290 289 287 287 287 287 288 288 288 287 287 286 286 286 285 283 282 281 280
296 287 290 292 294 293 291 289 289 287 290 287 291 291 295 293 293 294 295 295 294 292 292 292 291 291 291 288 287 287 287 287 288 287 286 286 287 286 286 284 282 280 279 278
293 287 290 287 292 292 289 291 291 290 290 291 292 293 300 296 296 295 294 294 293 292 292 292 292 291 290 289 288 287 287 286 287 286 286 286 286 285 283 282 280 278 277 276
288 287 285 284 289 289 279 285 290 292 292 293 288 294 292 293 293 294 294 294 293 293 293 292 292 292 291 290 289 288 287 287 285 285 285 285 284 282 281 280 278 277 276 275
287 286 286 285 284 277 289 293 293 292 293 294 294 291 293 292 292 293 298 295 293 293 293 293 293 293 292 292 290 289 287 285 284 284 284 283 282 280 280 278 276 276 275 274
288 286 283 281 282 286 288 282 287 289 289 294 292 289 285 286 288 289 294 295 295 294 294 293 293 293 291 290 289 287 284 283 283 282 283 282 281 279 278 275 275 275 274 273
282 285 285 281 280 279 286 284 287 289 283 291 291 288 284 286 285 292 287 289 290 290 289 289 289 287 286 286 285 284 282 282 282 282 283 282 280 277 275 275 274 275 274 273
279 280 280 283 281 284 286 281 283 281 285 284 290 286 284 287 289 287 287 286 287 287 286 286 286 284 285 283 283 282 282 281 283 282 281 279 277 275 275 274 274 272 271 271
282 281 280 282 279 278 282 279 284 284 283 284 287 285 284 284 283 285 285 284 284 283 283 284 283 282 282 282 282 281 281 282 280 279 277 275 273 274 273 270 271 270 269 268
280 286 284 284 283 280 282 281 284 285 287 283 285 285 285 283 282 282 282 282 282 282 282 282 283 281 281 281 282 281 281 278 276 275 273 271 271 272 271 269 269 268 269 269
279 280 280 282 279 280 282 286 284 283 283 283 284 284 283 282 281 281 281 281 281 281 281 280 280 280 280 279 279 280 278 276 273 272 271 270 269 269 269 270 270 270 270 270
279 281 279 275 278 280 282 284 285 284 283 282 282 282 283 283 281 281 281 281 281 281 280 280 279 279 280 279 278 277 275 273 273 272 271 271 270 269 269 269 270 270 271 271
279 278 277 277 280 283 283 285 285 283 281 282 281 280 281 282 281 281 281 281 281 280 279 278 278 278 278 278 277 274 273 272 272 272 271 271 271 270 270 270 269 272 272 272
Wind_Speed
10 10 15 18 17 17 9 11 12 7 4 4 13 16 11 13 10 10 9 8 7 5 4 4 4 4 6 6 7 7 6 6 5 6 7 8 10 9 10 10 14 13 12 12
5 16 18 13 10 15 13 15 16 13 4 5 13 17 15 14 14 13 11 10 9 9 8 7 7 7 6 7 7 8 8 7 7 7 7 8 9 10 10 10 12 12 12 13
17 5 6 10 7 11 16 17 15 15 2 11 13 20 22 16 9 7 8 9 10 11 11 10 9 9 8 8 8 8 10 11 10 11 9 9 10 8 9 9 9 10 11 11
15 17 6 11 16 14 17 14 15 13 6 11 5 11 5 14 13 14 14 13 14 14 12 10 10 10 9 8 7 9 9 10 8 7 8 10 9 10 8 9 8 9 11 12
5 10 13 14 11 12 7 3 7 11 14 16 17 10 11 8 13 18 18 17 17 15 14 13 11 9 8 8 8 9 10 10 10 10 10 8 11 9 9 9 10 10 9 11
14 4 9 9 3 10 10 6 3 3 9 14 17 17 13 12 13 17 19 19 19 18 16 13 10 8 8 7 8 9 11 11 10 9 9 11 12 11 8 8 7 6 6 7
15 16 5 5 7 4 13 8 5 6 7 9 3 16 16 5 8 16 24 23 22 18 16 13 12 10 9 9 9 9 10 11 9 9 10 9 10 11 11 8 6 7 6 6
15 10 23 18 23 12 19 17 8 7 9 8 1 11 8 5 10 7 17 21 21 20 17 15 14 12 11 10 9 10 9 11 10 10 11 10 10 6 7 7 6 6 6 6
12 11 4 11 10 18 11 15 14 5 2 5 8 11 6 8 7 9 18 19 21 20 18 18 16 13 12 11 10 10 10 10 10 10 9 9 8 8 8 9 7 6 7 6
3 6 5 5 2 6 7 10 7 7 7 9 9 13 10 12 16 15 20 22 21 18 18 16 15 14 13 12 11 11 11 11 10 10 8 8 8 8 8 7 8 8 7 6
6 6 6 6 13 18 9 10 10 6 10 4 5 8 11 15 19 22 19 20 21 21 19 17 15 14 13 12 12 12 12 12 10 9 8 9 8 8 8 7 7 7 6 5
12 1 11 15 3 13 18 15 20 7 7 10 6 11 4 4 15 18 19 20 21 21 19 17 16 15 14 13 13 14 12 11 10 10 10 9 9 8 7 7 7 6 6 4
14 5 5 4 5 3 10 15 19 20 2 18 9 8 3 6 9 15 17 19 19 20 20 18 17 16 16 15 13 13 12 12 11 10 10 9 9 9 8 8 8 7 6 5
6 7 11 17 5 10 11 18 19 17 13 20 23 15 8 11 13 15 15 17 20 21 21 20 18 18 16 15 15 14 13 12 12 12 11 11 11 10 9 8 7 7 5 5
11 10 16 25 22 7 7 15 25 28 36 20 34 23 14 17 16 19 17 17 18 20 21 22 20 18 17 16 15 14 13 14 13 13 12 12 10 9 8 8 7 6 5 4
4 9 14 21 22 21 19 16 27 33 33 30 32 25 10 17 14 14 18 19 20 21 23 22 19 17 17 17 16 14 14 14 14 14 13 11 10 9 8 8 7 6 6 5
11 8 7 18 14 18 4 39 23 29 33 25 31 34 4 8 12 16 16 16 18 18 20 19 19 18 16 15 14 15 15 13 14 13 12 11 10 9 9 8 7 7 6 5
8 12 8 9 4 15 18 5 25 32 28 24 24 1 10 14 11 1 6 14 15 14 14 14 13 13 13 13 13 11 11 12 13 12 10 9 10 10 9 8 8 7 6 6
8 7 5 6 11 11 19 5 9 15 27 19 12 7 6 9 6 4 5 6 8 10 10 11 11 11 11 11 10 9 9 11 12 13 12 11 11 11 10 9 8 7 6 6
2 3 9 5 7 11 6 8 3 8 14 8 12 12 10 11 8 10 10 5 8 9 8 10 9 8 8 7 9 10 11 11 12 12 12 11 10 10 9 9 7 6 5 5
5 3 15 15 8 6 2 6 2 8 2 3 6 11 13 8 3 4 12 8 8 8 9 9 8 8 7 8 10 10 10 12 10 7 8 9 9 8 8 8 6 6 5 4
12 11 7 6 6 11 6 4 10 1 1 3 4 7 8 6 5 8 9 10 9 9 8 6 6 5 5 7 8 8 10 6 7 8 8 8 8 7 7 8 6 5 5 5
6 5 5 5 1 4 2 3 2 2 2 4 5 6 10 9 6 10 10 9 7 8 6 4 5 5 4 6 7 9 6 8 8 8 8 8 8 7 7 7 7 7 7 5
4 2 2 5 2 4 3 4 4 4 2 3 4 9 9 7 8 6 6 6 6 5 6 5 6 5 6 6 6 4 8 8 8 8 8 8 8 8 7 6 6 6 6 6
1 9 5 4 2 4 5 8 11 2 2 4 4 4 7 8 6 7 6 6 6 6 4 5 7 6 7 7 7 6 7 9 8 7 7 8 6 8 7 7 6 6 6 7
6 6 5 3 11 4 9 17 14 7 6 5 6 5 3 6 8 6 6 6 5 6 4 4 6 5 5 6 7 6 7 9 9 8 7 7 6 6 5 5 5 11 12 11
Wind_Direction
201 218 218 226 228 251 289 277 264 273 100 260 242 256 222 191 209 215 209 199 188 165 118 104 91 95 91 86 89 98 107 144 136 115 106 93 84 79 72 62 57 53 50 53
183 230 238 248 278 238 241 252 255 262 155 247 267 261 254 189 214 220 211 194 177 159 147 134 119 109 91 97 96 98 96 88 84 91 92 93 97 85 83 77 67 62 59 55
225 221 238 200 212 216 234 244 255 262 141 237 273 266 248 222 208 211 215 188 171 167 152 144 137 127 122 107 99 95 95 98 96 101 104 104 109 103 91 78 70 60 63 64
244 232 185 200 228 215 244 228 253 266 244 264 175 282 267 198 202 205 199 182 174 161 152 144 144 132 123 114 112 106 105 105 100 121 126 111 107 103 88 82 77 66 55 56
208 178 200 213 216 200 251 94 224 246 257 270 247 267 258 152 213 205 196 188 176 168 163 156 147 134 124 122 111 106 103 96 101 107 107 107 110 112 112 105 95 83 69 60
261 13 209 215 113 188 128 109 94 243 258 252 236 225 251 194 213 191 191 188 175 170 166 158 148 147 133 128 117 107 102 96 96 101 109 114 115 115 112 107 99 92 83 68
218 218 178 180 138 147 195 174 242 230 210 256 321 219 256 162 185 184 180 182 176 169 167 166 169 169 151 136 125 119 114 111 109 109 111 109 107 107 111 113 106 102 83 67
211 217 198 197 213 189 199 198 200 250 238 262 77 235 242 9 132 178 177 175 171 173 174 176 177 170 159 150 143 136 132 130 129 122 115 113 113 106 96 92 95 93 95 87
206 233 186 192 219 212 173 223 235 318 130 269 216 243 215 156 163 175 174 175 177 177 177 178 176 176 167 165 159 155 148 140 135 130 121 113 109 106 109 106 104 104 103 102
237 250 181 144 168 263 228 165 173 205 224 238 240 244 239 204 188 176 177 184 180 178 178 181 181 179 175 172 167 163 159 153 144 133 128 123 121 123 128 130 124 120 120 119
203 239 127 149 203 186 181 211 223 220 221 254 274 240 192 201 187 184 184 183 180 182 183 183 182 182 181 176 174 169 164 157 153 146 141 142 147 145 141 137 135 131 129 126
196 264 243 224 181 247 226 213 207 207 195 237 279 257 159 158 178 178 181 185 186 184 181 182 182 181 182 183 180 177 171 166 164 161 164 168 158 161 155 149 144 142 145 138
164 180 231 268 202 168 221 216 224 228 52 228 198 247 135 132 169 180 181 181 184 181 182 184 185 185 184 185 184 181 177 175 170 168 176 173 172 175 169 162 158 164 159 151
150 151 208 231 227 150 199 210 207 216 226 231 232 234 177 195 185 182 185 182 181 184 185 187 188 188 186 185 184 184 182 180 177 178 184 183 186 181 173 169 169 162 167 162
175 225 214 246 260 252 208 205 205 209 228 213 245 232 208 195 188 187 182 178 182 186 189 193 191 188 185 183 184 188 185 186 181 185 189 191 184 181 168 169 171 163 170 162
178 233 224 250 243 245 247 242 223 217 230 234 248 251 228 185 191 174 179 176 184 189 195 195 191 186 188 184 187 186 192 185 185 189 193 190 181 172 169 170 170 171 177 185
180 206 202 247 232 246 303 230 226 231 225 227 234 241 124 149 193 193 181 175 190 194 193 190 190 187 186 184 186 191 190 179 186 190 192 186 168 165 173 170 175 185 189 186
185 199 219 253 104 220 243 275 221 227 239 227 248 185 186 176 169 228 204 186 191 193 185 184 181 180 181 183 186 185 182 180 180 187 183 169 164 169 171 176 184 184 184 198
202 184 217 224 221 294 285 193 184 193 243 235 228 122 100 86 77 244 225 205 185 172 168 169 170 169 166 170 170 172 168 171 178 189 182 178 174 173 174 179 184 185 185 194
190 247 216 165 227 231 335 107 35 90 262 191 163 165 140 134 192 222 162 146 121 122 129 136 133 130 144 151 146 156 172 175 190 189 187 173 169 167 172 168 176 171 187 199
171 197 220 225 229 269 137 145 196 161 271 346 154 154 150 171 207 131 138 135 132 130 123 119 132 157 158 144 150 168 169 193 191 155 141 146 152 160 160 155 161 165 183 203
179 178 199 209 231 245 138 105 186 140 103 125 112 146 157 111 110 136 139 136 138 129 126 134 139 153 135 144 155 164 186 169 131 134 140 146 147 157 155 153 159 171 187 206
220 217 179 215 193 336 56 6 173 185 196 204 159 156 153 141 151 147 144 145 146 145 139 125 142 137 148 164 174 176 174 142 136 140 145 145 148 161 157 164 174 187 197 215
228 148 185 162 98 143 44 317 242 201 182 143 124 146 150 134 138 120 122 141 151 148 158 148 148 181 198 184 187 180 142 138 142 148 154 153 162 167 169 187 192 199 201 206
89 149 134 65 77 89 289 264 258 205 112 114 90 139 136 134 150 147 148 165 175 168 153 166 183 197 216 174 188 158 146 141 155 158 163 169 179 182 182 205 200 208 216 215
191 159 181 125 160 153 211 223 233 210 198 169 151 130 109 152 159 155 179 182 169 182 165 180 195 197 207 179 182 157 151 160 161 166 169 178 181 178 200 197 215 234 238 234